Location: Gleizolles
(44.4833°N, 6.7667°E)
Time: 02:48:40
(UTC+00:00)

Vanguard 1 Rocket - Pass Details

Date: 26 June 2024
Orbit: 650 x 4219 km, 34.3° (Epoch: 15 July)

Event Time Altitude Azimuth Distance (km) Brightness Sun altitude
Rises 03:17:24 0° 265° (W) 5,996 11.1 -5.4°
Reaches altitude 10° 03:20:42 10° 262° (W) 5,363 10.8 -5.0°
Maximum altitude 03:38:18 62° 187° (S) 4,084 10.5 -2.5°
Drops below altitude 10° 04:03:45 10° 115° (ESE) 7,346 12.5 1.2°
Sets 04:09:19 0° 113° (ESE) 8,211 12.8 2.1°
